User: anonymous   Login
Location: Asheville, NC
(35.6000°N, 82.5500°W)
Time: 03:27:16
(UTC-04:00)
Language:

DELFI C3 - Orbit

View from above orbital plane
View from above orbital plane
View from above satellite
View from above satellite

Ground track
Ground track

The orbit data is extracted from the following two-line orbital elements,

1 32789U 08021G   18110.90510295 +.00002165 +00000-0 +15277-3 0  9991
2 32789 097.5176 167.1538 0013853 129.9204 230.3243 15.05925138543068
Epoch (UTC): 20 April 2018 21:43:20
Eccentricity: 0.0013853
inclination: 97.5176°
perigee height: 539 km
apogee height: 558 km
right ascension of ascending node: 167.1538°
argument of perigee: 129.9204°
revolutions per day: 15.05925138
mean anomaly at epoch: 230.3243°
orbit number at epoch: 54306

The dashed part of the orbit path shows where the satellite is in the earth's shadow,  

DLR